Regional Weather Roundup
Issued by NWS Cleveland, OH

Home | Current Version | Previous Version | Graphics & Text | Print | Product List | Glossary On
Versions: 1 2 3 4 5 6 7 8 9 10 11 12 13 14 15 16 17 18 19 20 21 22 23 24 25 26 27 28 29 30 31 32 33 34 35 36 37 38 39 40 41 42 43 44 45 46 47 48 49 50
000
ASUS41 KCLE 021800
RWRCLE
OHIO REGIONAL WEATHER ROUNDUP
NATIONAL WEATHER SERVICE WILMINGTON, OH
200 PM EDT TUE SEP 02 2014

NOTE: "FAIR" INDICATES FEW OR NO CLOUDS BELOW 12,000 FEET WITH NO
SIGNIFICANT WEATHER AND/OR OBSTRUCTIONS TO VISIBILITY.

OHZ001>008-015>018-024>027-034-035-043-044-021900-
   NORTHWEST OHIO

CITY           SKY/WX    TMP DP  RH WIND       PRES   REMARKS
DEFIANCE       CLOUDY    74  67  78 W7        29.91F
FINDLAY        LGT RAIN  71  67  87 W13       29.92R FOG
TOLEDO EXPRESS CLOUDY    70  68  93 W12       29.90S
TOLEDO METCALF CLOUDY    71  67  87 SW12      29.90F
LIMA           CLOUDY    73  66  78 W16       29.94S
$$

OHZ009>014-019>023-028>033-038-089-021900-
   NORTHEAST OHIO

CITY           SKY/WX    TMP DP  RH WIND       PRES   REMARKS
CLE-HOPKINS    CLOUDY    74  65  73 W14       29.90F
CLE-LAKEFRONT  CLOUDY    76  67  73 SW8       29.87F
CUY CO. ARPT   PTSUNNY   75  70  83 SW8       29.89F
LORAIN-ELYRIA  CLOUDY    76  65  68 W13       29.90F
ASHTABULA      LGT RAIN  70  67  90 SW10      29.89F FOG
AKRON-CANTON   RAIN      72  67  84 W16       29.91F
WOOSTER        NOT AVBL
MANSFIELD      CLOUDY    75  67  76 SW10G16   29.93F
YOUNGSTOWN     CLOUDY    77  68  73 W7        29.89F
$$

OHZ042-051>053-060>062-070>072-077>081-021900-
  SOUTHWEST OHIO

CITY           SKY/WX    TMP DP  RH WIND       PRES   REMARKS
CINC-COVINGTON LGT RAIN  76  69  79 SW7       29.98R
CINC-LUNKEN    CLOUDY    80  68  66 SW15      29.96S
HAMILTON       HVY RAIN  75  70  84 VRB5      29.97R
DAYTON         NOT AVBL
WRIGHT-PAT AFB NOT AVBL
DAYTON GENERAL PTSUNNY   77  67  71 W8        29.96S
WILMINGTON     MOSUNNY   78  67  68 SW9       29.96S
$$

OHZ036-037-039>041-045>050-054>059-063>069-073>076-082>088-021900-
  CENTRAL AND SOUTHEAST OHIO

CITY           SKY/WX    TMP DP  RH WIND       PRES   REMARKS
COLUMBUS       PTSUNNY   82  66  58 W10G20    29.93F
OSU AIRPORT    PTSUNNY   79  66  64 W13       29.94S
BOLTON FIELD   PTSUNNY   79  70  73 SW13      29.96R
RICKENBACK AFB NOT AVBL
NEWARK         MOSUNNY   78  68  71 SW13      29.93S
MARION         CLOUDY    75  65  70 SW13      29.93S
LANCASTER      MOSUNNY   79  69  71 SW14G21   29.95S
ZANESVILLE     CLOUDY    78  68  71 W9        29.93S
NEW PHILLY     PTSUNNY   80  71  74 S13G20    29.91S
$$


USA.gov is the U.S. government's official web portal to all federal, state and local government web resources and services.